• Em Portugal
  • Lista de países
  • Para 7 dias
  • Temperatura da água
  • Mapas de satélite
  • Mapa do tempo
  • Widgets de tempo
  • user-avatar
    Iniciar Sessão

    Previsão horária em Trzebien

    Hoje, 23 Abril, Segunda-feira

    Tempo Temperatura Precipitação Vento Pressão Humidade
    00:00 +15°C° 0,2 mm 2 m/s 745 mmHg 72%
    01:00 +15°C° 0 mm 2 m/s 745 mmHg 71%
    02:00 +15°C° 0,3 mm 2 m/s 744 mmHg 73%
    03:00 +15°C° 0,3 mm 2 m/s 744 mmHg 76%
    04:00 +15°C° 0,3 mm 2 m/s 744 mmHg 78%
    05:00 +16°C° 0 mm 3 m/s 744 mmHg 77%
    06:00 +17°C° 0 mm 3 m/s 744 mmHg 77%
    07:00 +17°C° 0 mm 2 m/s 744 mmHg 75%
    08:00 +19°C° 0 mm 3 m/s 744 mmHg 68%
    09:00 +21°C° 0 mm 3 m/s 744 mmHg 61%
    10:00 +24°C° 0 mm 3 m/s 744 mmHg 54%
    11:00 +25°C° 0,1 mm 4 m/s 744 mmHg 52%
    12:00 +25°C° 0,1 mm 4 m/s 744 mmHg 50%
    13:00 +26°C° 0,1 mm 5 m/s 744 mmHg 47%
    14:00 +23°C° 0,4 mm 5 m/s 744 mmHg 55%
    15:00 +22°C° 0,4 mm 4 m/s 744 mmHg 62%
    16:00 +20°C° 0,4 mm 4 m/s 744 mmHg 70%
    17:00 +19°C° 0,3 mm 4 m/s 744 mmHg 74%
    18:00 +18°C° 0,3 mm 3 m/s 744 mmHg 79%
    19:00 +17°C° 0,3 mm 3 m/s 744 mmHg 84%
    20:00 +16°C° 0 mm 3 m/s 745 mmHg 86%
    21:00 +14°C° 0 mm 3 m/s 745 mmHg 89%
    22:00 +14°C° 0 mm 2 m/s 745 mmHg 92%
    23:00 +13°C° 0 mm 2 m/s 746 mmHg 93%

    Amanhã, 24 Abril, Terça-feira

    Tempo Temperatura Precipitação Vento Pressão Humidade
    00:00 +12°C° 0 mm 2 m/s 746 mmHg 94%
    01:00 +12°C° 0 mm 1 m/s 746 mmHg 95%
    02:00 +11°C° 0 mm 1 m/s 746 mmHg 94%
    03:00 +10°C° 0 mm 2 m/s 746 mmHg 94%
    04:00 +10°C° 0 mm 2 m/s 747 mmHg 94%
    05:00 +12°C° 0 mm 2 m/s 747 mmHg 90%
    06:00 +11°C° 0 mm 3 m/s 747 mmHg 85%
    07:00 +12°C° 0 mm 3 m/s 747 mmHg 81%
    08:00 +14°C° 0 mm 3 m/s 747 mmHg 73%
    09:00 +15°C° 0 mm 4 m/s 747 mmHg 65%
    10:00 +17°C° 0 mm 5 m/s 747 mmHg 57%
    11:00 +19°C° 0 mm 5 m/s 747 mmHg 54%
    12:00 +20°C° 0 mm 5 m/s 746 mmHg 51%
    13:00 +21°C° 0 mm 5 m/s 746 mmHg 48%
    14:00 +21°C° 0 mm 5 m/s 746 mmHg 47%
    15:00 +20°C° 0 mm 5 m/s 745 mmHg 47%
    16:00 +20°C° 0 mm 5 m/s 745 mmHg 47%
    17:00 +19°C° 0 mm 4 m/s 745 mmHg 54%
    18:00 +17°C° 0 mm 3 m/s 745 mmHg 61%
    19:00 +15°C° 0 mm 2 m/s 745 mmHg 68%
    20:00 +14°C° 0,1 mm 2 m/s 746 mmHg 74%
    21:00 +14°C° 0,1 mm 2 m/s 746 mmHg 80%
    22:00 +13°C° 0,1 mm 1 m/s 746 mmHg 86%
    23:00 +12°C° 0 mm 1 m/s 746 mmHg 88%

    Depois de amanhã, 25 Abril, Quarta-feira

    Tempo Temperatura Precipitação Vento Pressão Humidade
    00:00 +12°C° 0 mm 1 m/s 746 mmHg 90%
    01:00 +11°C° 0 mm 1 m/s 746 mmHg 92%
    02:00 +10°C° 0 mm 2 m/s 745 mmHg 91%
    03:00 +10°C° 0 mm 2 m/s 745 mmHg 91%
    04:00 +10°C° 0 mm 2 m/s 745 mmHg 90%
    05:00 +11°C° 0 mm 3 m/s 744 mmHg 85%
    06:00 +12°C° 0 mm 3 m/s 744 mmHg 80%
    07:00 +14°C° 0 mm 4 m/s 744 mmHg 74%
    08:00 +16°C° 0 mm 5 m/s 744 mmHg 68%
    09:00 +19°C° 0 mm 5 m/s 743 mmHg 61%
    10:00 +20°C° 0 mm 6 m/s 743 mmHg 54%
    11:00 +21°C° 0,1 mm 6 m/s 743 mmHg 53%
    12:00 +22°C° 0,1 mm 7 m/s 743 mmHg 51%
    13:00 +22°C° 0,1 mm 7 m/s 742 mmHg 50%
    14:00 +22°C° 0,3 mm 7 m/s 742 mmHg 54%
    15:00 +21°C° 0,3 mm 6 m/s 742 mmHg 57%
    16:00 +20°C° 0,3 mm 6 m/s 741 mmHg 61%
    17:00 +19°C° 0,2 mm 5 m/s 741 mmHg 68%
    18:00 +17°C° 0,2 mm 4 m/s 741 mmHg 76%
    19:00 +16°C° 0,2 mm 3 m/s 742 mmHg 83%
    20:00 +14°C° 0 mm 3 m/s 742 mmHg 84%
    21:00 +13°C° 0 mm 3 m/s 743 mmHg 84%
    22:00 +13°C° 0 mm 3 m/s 743 mmHg 85%
    23:00 +12°C° 0 mm 3 m/s 744 mmHg 86%

    26 Abril, Quinta-feira

    Tempo Temperatura Precipitação Vento Pressão Humidade
    00:00 +11°C° 0 mm 3 m/s 744 mmHg 87%
    01:00 +10°C° 0 mm 3 m/s 744 mmHg 87%
    02:00 +10°C° 0 mm 2 m/s 744 mmHg 87%
    03:00 +9°C° 0 mm 2 m/s 744 mmHg 86%
    04:00 +9°C° 0 mm 2 m/s 745 mmHg 86%
    05:00 +10°C° 0 mm 2 m/s 745 mmHg 82%
    06:00 +10°C° 0 mm 2 m/s 745 mmHg 78%
    07:00 +12°C° 0 mm 2 m/s 745 mmHg 74%
    08:00 +12°C° 0,1 mm 3 m/s 745 mmHg 69%
    09:00 +13°C° 0,1 mm 4 m/s 745 mmHg 64%
    10:00 +14°C° 0,1 mm 5 m/s 745 mmHg 60%
    11:00 +15°C° 0,1 mm 5 m/s 744 mmHg 54%
    12:00 +15°C° 0,1 mm 6 m/s 744 mmHg 49%
    13:00 +16°C° 0,1 mm 7 m/s 744 mmHg 43%
    14:00 +15°C° 0 mm 6 m/s 744 mmHg 44%
    15:00 +15°C° 0 mm 6 m/s 744 mmHg 45%
    16:00 +14°C° 0 mm 6 m/s 744 mmHg 47%
    17:00 +13°C° 0 mm 5 m/s 745 mmHg 51%
    18:00 +12°C° 0 mm 4 m/s 745 mmHg 55%
    19:00 +11°C° 0 mm 3 m/s 745 mmHg 59%
    20:00 +10°C° 0 mm 3 m/s 746 mmHg 63%
    21:00 +8°C° 0 mm 3 m/s 746 mmHg 68%
    22:00 +7°C° 0 mm 3 m/s 747 mmHg 72%
    23:00 +7°C° 0 mm 3 m/s 747 mmHg 74%

    27 Abril, Sexta-feira

    Tempo Temperatura Precipitação Vento Pressão Humidade
    00:00 +7°C° 0 mm 3 m/s 747 mmHg 75%
    01:00 +5°C° 0 mm 3 m/s 747 mmHg 76%
    02:00 +5°C° 0 mm 3 m/s 747 mmHg 78%
    03:00 +5°C° 0 mm 3 m/s 747 mmHg 80%
    04:00 +5°C° 0 mm 2 m/s 747 mmHg 82%
    05:00 +5°C° 0 mm 3 m/s 747 mmHg 78%
    06:00 +7°C° 0 mm 3 m/s 747 mmHg 74%
    07:00 +9°C° 0 mm 3 m/s 748 mmHg 70%
    08:00 +10°C° 0 mm 3 m/s 748 mmHg 62%
    09:00 +12°C° 0 mm 3 m/s 748 mmHg 54%
    10:00 +13°C° 0 mm 3 m/s 748 mmHg 46%
    11:00 +15°C° 0 mm 2 m/s 747 mmHg 44%
    12:00 +15°C° 0 mm 2 m/s 747 mmHg 42%
    13:00 +16°C° 0 mm 2 m/s 746 mmHg 40%
    14:00 +16°C° 0 mm 2 m/s 746 mmHg 41%
    15:00 +16°C° 0 mm 2 m/s 746 mmHg 41%
    16:00 +16°C° 0 mm 1 m/s 746 mmHg 41%
    17:00 +15°C° 0 mm 1 m/s 745 mmHg 47%
    18:00 +14°C° 0 mm 1 m/s 745 mmHg 52%
    19:00 +13°C° 0 mm 1 m/s 745 mmHg 57%
    20:00 +12°C° 0 mm 2 m/s 745 mmHg 60%
    21:00 +10°C° 0 mm 2 m/s 745 mmHg 63%
    22:00 +9°C° 0 mm 3 m/s 745 mmHg 66%
    23:00 +9°C° 0 mm 3 m/s 745 mmHg 67%

    28 Abril, Sábado

    Tempo Temperatura Precipitação Vento Pressão Humidade
    00:00 +9°C° 0 mm 3 m/s 744 mmHg 67%
    01:00 +9°C° 0 mm 3 m/s 744 mmHg 68%
    02:00 +9°C° 0 mm 3 m/s 744 mmHg 67%
    03:00 +9°C° 0 mm 3 m/s 743 mmHg 66%
    04:00 +9°C° 0 mm 3 m/s 743 mmHg 66%
    05:00 +10°C° 0 mm 3 m/s 743 mmHg 65%
    06:00 +11°C° 0 mm 3 m/s 743 mmHg 65%
    07:00 +12°C° 0 mm 3 m/s 743 mmHg 64%
    08:00 +15°C° 0 mm 2 m/s 743 mmHg 60%
    09:00 +17°C° 0 mm 2 m/s 743 mmHg 56%
    10:00 +19°C° 0 mm 2 m/s 743 mmHg 51%
    11:00 +20°C° 0 mm 2 m/s 743 mmHg 49%
    12:00 +23°C° 0 mm 2 m/s 743 mmHg 46%
    13:00 +24°C° 0 mm 2 m/s 743 mmHg 43%
    14:00 +23°C° 0 mm 2 m/s 743 mmHg 44%
    15:00 +23°C° 0 mm 2 m/s 743 mmHg 46%
    16:00 +23°C° 0 mm 2 m/s 743 mmHg 47%
    17:00 +20°C° 0 mm 2 m/s 743 mmHg 53%
    18:00 +20°C° 0 mm 1 m/s 743 mmHg 59%
    19:00 +18°C° 0 mm 1 m/s 743 mmHg 65%
    20:00 +16°C° 0 mm 1 m/s 743 mmHg 68%
    21:00 +15°C° 0 mm 1 m/s 743 mmHg 72%
    22:00 +14°C° 0 mm 1 m/s 744 mmHg 75%
    23:00 +13°C° 0 mm 1 m/s 744 mmHg 78%
    Mostrar mais